LEMUR-2-REDFERN-GOES (42059 NORAD) Tracking and Keplerian Element Data

This shows tracking and keplerian element data for the satellite.

Feedback or suggestion? Click here.




ElementValue
Catalog42059
NameLEMUR-2-REDFERN-GOES
Epoch Orbit9678
Epoch Day316.80505043
Epoch Year2018
RAAN288.283
Inclination51.6292
Eccentricity0.0007038
Argument of Perigee88.278
Mean Anonmoly271.9037
Mean Motion16.01706661
Decay Rate0.00277609
L11 42059U 98067LA 18316.80505043 .00277609 44253-4 48161-3 0 9990
L22 42059 51.6292 288.2830 0007038 88.2780 271.9037 16.01706661 96782

Live tracking and technical data element details for LEMUR-2-REDFERN-GOES (NORAD 42059). LEMUR-2-REDFERN-GOES can be tracked NOW for your location showing map with azimuth and elevation plus other details from your city location.

Track the satellite on the map from your city or location and see movement details for azimuth, elevation, latitude, longitude, range, height, and movement on the map or in text.







IsCatalogInMostPopularTable: catalog: 42059, numindb: 138
Update: records affected: 1



GetName: 42059 LEMUR-2-REDFERN-GOES

Hit Count: updated at: Tue, 13 Nov 2018 22:09:19 GMT